Tracking 35274 objects as of 12-Sep-2026
HD Live streaming from Space Station
objects crossing your sky now

STARLINK-33879

Track STARLINK-33879 now!
10-day predictions
STARLINK-33879 is classified as:


NORAD ID: 63634
Int'l Code: 2025-083A
Launch date: April 25, 2025
Source: United States (US)
Launch site: AIR FORCE EASTERN TEST RANGE (AFETR)
Your satellite tracking list
Your tracking list is empty




NASA's NSSDC Master Catalog

Two Line Element Set (TLE):
1 63634U 25083A   26254.78469952  .00018730  00000-0  68814-3 0  9998
2 63634  43.0051  34.5902 0002014 284.5186  75.5442 15.27593665 78529
Source of the keplerian elements: AFSPC